Time,TemperatureF,DewpointF,PressureIn,WindDirection,WindDirectionDegrees,WindSpeedMPH,WindSpeedGustMPH,Humidity,HourlyPrecipIn,Conditions,Clouds,dailyrainin,SoftwareType,DateUTC
2013-10-11 00:00:00,66.8,59.7,29.96,SW,225,0.0,-999.0,78,0.00,,,0.00,Wunderground v.1.15,2013-10-11 04:00:00,
2013-10-11 00:05:00,66.8,59.7,29.96,SW,225,0.0,-999.0,78,0.00,,,0.00,Wunderground v.1.15,2013-10-11 04:05:00,
2013-10-11 00:10:00,66.8,59.7,29.96,SW,225,0.0,-999.0,78,0.00,,,0.00,Wunderground v.1.15,2013-10-11 04:10:00,
2013-10-11 00:15:00,66.8,59.7,29.96,SW,225,0.0,-999.0,78,0.00,,,0.00,Wunderground v.1.15,2013-10-11 04:15:00,
2013-10-11 00:20:00,66.8,59.7,29.96,SW,225,0.0,-999.0,78,0.00,,,0.00,Wunderground v.1.15,2013-10-11 04:20:00,
2013-10-11 00:25:00,66.8,59.7,29.96,SW,225,0.0,-999.0,78,0.00,,,0.00,Wunderground v.1.15,2013-10-11 04:25:00,
2013-10-11 00:30:00,66.8,59.7,29.96,SW,225,0.0,-999.0,78,0.00,,,0.00,Wunderground v.1.15,2013-10-11 04:30:00,
2013-10-11 00:35:00,66.8,59.7,29.96,SW,225,0.0,-999.0,78,0.00,,,0.00,Wunderground v.1.15,2013-10-11 04:35:00,
2013-10-11 00:40:00,66.8,59.7,29.96,SW,225,0.0,-999.0,78,0.00,,,0.00,Wunderground v.1.15,2013-10-11 04:40:00,
2013-10-11 00:45:00,66.5,59.1,29.95,SW,225,0.0,-999.0,77,0.00,,,0.00,Wunderground v.1.15,2013-10-11 04:45:00,
2013-10-11 00:50:00,66.5,59.1,29.95,SW,225,0.0,-999.0,77,0.00,,,0.00,Wunderground v.1.15,2013-10-11 04:50:00,
2013-10-11 00:55:00,66.5,59.1,29.95,SW,225,0.0,-999.0,77,0.00,,,0.00,Wunderground v.1.15,2013-10-11 04:55:00,
2013-10-11 01:00:00,66.5,59.1,29.95,SW,225,0.0,-999.0,77,0.00,,,0.00,Wunderground v.1.15,2013-10-11 05:00:00,
2013-10-11 01:05:00,66.5,59.1,29.95,SW,225,0.0,-999.0,77,0.00,,,0.00,Wunderground v.1.15,2013-10-11 05:05:00,
2013-10-11 01:10:00,66.5,59.1,29.95,SW,225,0.0,-999.0,77,0.00,,,0.00,Wunderground v.1.15,2013-10-11 05:10:00,
2013-10-11 01:15:00,66.2,58.4,29.95,SSE,158,0.0,-999.0,76,0.00,,,0.00,Wunderground v.1.15,2013-10-11 05:15:00,
2013-10-11 01:20:00,66.2,58.4,29.95,SSE,158,0.0,-999.0,76,0.00,,,0.00,Wunderground v.1.15,2013-10-11 05:20:00,
2013-10-11 01:25:00,66.2,58.4,29.95,SSE,158,0.0,-999.0,76,0.00,,,0.00,Wunderground v.1.15,2013-10-11 05:25:00,
2013-10-11 01:30:00,66.2,58.4,29.95,SSE,158,0.0,-999.0,76,0.00,,,0.00,Wunderground v.1.15,2013-10-11 05:30:00,
2013-10-11 01:35:00,66.2,58.4,29.95,SSE,158,0.0,-999.0,76,0.00,,,0.00,Wunderground v.1.15,2013-10-11 05:35:00,
2013-10-11 01:40:00,66.2,58.4,29.95,SSE,158,0.0,-999.0,76,0.00,,,0.00,Wunderground v.1.15,2013-10-11 05:40:00,
2013-10-11 01:45:00,66.1,58.3,29.95,WSW,248,0.0,-999.0,76,0.00,,,0.00,Wunderground v.1.15,2013-10-11 05:45:00,
2013-10-11 01:50:00,66.1,58.3,29.95,WSW,248,0.0,-999.0,76,0.00,,,0.00,Wunderground v.1.15,2013-10-11 05:50:00,
2013-10-11 01:55:00,66.1,58.3,29.95,WSW,248,0.0,-999.0,76,0.00,,,0.00,Wunderground v.1.15,2013-10-11 05:55:00,
2013-10-11 02:00:00,66.1,58.3,29.95,WSW,248,0.0,-999.0,76,0.00,,,0.00,Wunderground v.1.15,2013-10-11 06:00:00,
2013-10-11 02:05:00,66.1,58.3,29.95,WSW,248,0.0,-999.0,76,0.00,,,0.00,Wunderground v.1.15,2013-10-11 06:05:00,
2013-10-11 02:10:00,66.1,58.3,29.95,WSW,248,0.0,-999.0,76,0.00,,,0.00,Wunderground v.1.15,2013-10-11 06:10:00,
2013-10-11 02:15:00,66.1,58.7,29.95,SSW,203,0.0,-999.0,77,0.00,,,0.00,Wunderground v.1.15,2013-10-11 06:15:00,
2013-10-11 02:20:00,66.1,58.7,29.95,SSW,203,0.0,-999.0,77,0.00,,,0.00,Wunderground v.1.15,2013-10-11 06:20:00,
2013-10-11 02:25:00,66.1,58.7,29.95,SSW,203,0.0,-999.0,77,0.00,,,0.00,Wunderground v.1.15,2013-10-11 06:25:00,
2013-10-11 02:30:00,66.1,58.7,29.95,SSW,203,0.0,-999.0,77,0.00,,,0.00,Wunderground v.1.15,2013-10-11 06:30:00,
2013-10-11 02:35:00,66.1,58.7,29.95,SSW,203,0.0,-999.0,77,0.00,,,0.00,Wunderground v.1.15,2013-10-11 06:35:00,
2013-10-11 02:40:00,66.1,58.7,29.95,SSW,203,0.0,-999.0,77,0.00,,,0.00,Wunderground v.1.15,2013-10-11 06:40:00,
2013-10-11 02:45:00,65.9,58.5,29.95,SW,225,0.0,-999.0,77,0.00,,,0.00,Wunderground v.1.15,2013-10-11 06:45:00,
2013-10-11 02:50:00,65.9,58.5,29.95,SW,225,0.0,-999.0,77,0.00,,,0.00,Wunderground v.1.15,2013-10-11 06:50:00,
2013-10-11 02:55:00,65.9,58.5,29.95,SW,225,0.0,-999.0,77,0.00,,,0.00,Wunderground v.1.15,2013-10-11 06:55:00,
2013-10-11 03:00:00,65.9,58.5,29.95,SW,225,0.0,-999.0,77,0.00,,,0.00,Wunderground v.1.15,2013-10-11 07:00:00,
2013-10-11 03:05:00,65.9,58.5,29.95,SW,225,0.0,-999.0,77,0.00,,,0.00,Wunderground v.1.15,2013-10-11 07:05:00,
2013-10-11 03:10:00,65.9,58.5,29.95,SW,225,0.0,-999.0,77,0.00,,,0.00,Wunderground v.1.15,2013-10-11 07:10:00,
2013-10-11 03:15:00,65.7,58.3,29.94,SW,225,0.0,-999.0,77,0.00,,,0.00,Wunderground v.1.15,2013-10-11 07:15:00,
2013-10-11 03:20:00,65.7,58.3,29.94,SW,225,0.0,-999.0,77,0.00,,,0.00,Wunderground v.1.15,2013-10-11 07:20:00,
2013-10-11 03:25:00,65.7,58.3,29.94,SW,225,0.0,-999.0,77,0.00,,,0.00,Wunderground v.1.15,2013-10-11 07:25:00,
2013-10-11 03:30:00,65.7,58.3,29.94,SW,225,0.0,-999.0,77,0.00,,,0.00,Wunderground v.1.15,2013-10-11 07:30:00,
2013-10-11 03:35:00,65.7,58.3,29.94,SW,225,0.0,-999.0,77,0.00,,,0.00,Wunderground v.1.15,2013-10-11 07:35:00,
2013-10-11 03:40:00,65.7,58.3,29.94,SW,225,0.0,-999.0,77,0.00,,,0.00,Wunderground v.1.15,2013-10-11 07:40:00,
2013-10-11 03:45:00,65.5,57.7,29.94,SSE,158,0.0,-999.0,76,0.00,,,0.00,Wunderground v.1.15,2013-10-11 07:45:00,
2013-10-11 03:50:00,65.5,57.7,29.94,SSE,158,0.0,-999.0,76,0.00,,,0.00,Wunderground v.1.15,2013-10-11 07:50:00,
2013-10-11 03:55:00,65.5,57.7,29.94,SSE,158,0.0,-999.0,76,0.00,,,0.00,Wunderground v.1.15,2013-10-11 07:55:00,
2013-10-11 04:00:00,65.5,57.7,29.94,SSE,158,0.0,-999.0,76,0.00,,,0.00,Wunderground v.1.15,2013-10-11 08:00:00,
2013-10-11 04:05:00,65.5,57.7,29.94,SSE,158,0.0,-999.0,76,0.00,,,0.00,Wunderground v.1.15,2013-10-11 08:05:00,
2013-10-11 04:10:00,65.5,57.7,29.94,SSE,158,0.0,-999.0,76,0.00,,,0.00,Wunderground v.1.15,2013-10-11 08:10:00,
2013-10-11 04:15:00,65.6,57.8,29.94,SW,225,0.0,-999.0,76,0.00,,,0.00,Wunderground v.1.15,2013-10-11 08:15:00,
2013-10-11 04:20:00,65.6,57.8,29.94,SW,225,0.0,-999.0,76,0.00,,,0.00,Wunderground v.1.15,2013-10-11 08:20:00,
2013-10-11 04:25:00,65.6,57.8,29.94,SW,225,0.0,-999.0,76,0.00,,,0.00,Wunderground v.1.15,2013-10-11 08:25:00,
2013-10-11 04:30:00,65.6,57.8,29.94,SW,225,0.0,-999.0,76,0.00,,,0.00,Wunderground v.1.15,2013-10-11 08:30:00,
2013-10-11 04:35:00,65.6,57.8,29.94,SW,225,0.0,-999.0,76,0.00,,,0.00,Wunderground v.1.15,2013-10-11 08:35:00,
2013-10-11 04:40:00,65.6,57.8,29.94,SW,225,0.0,-999.0,76,0.00,,,0.00,Wunderground v.1.15,2013-10-11 08:40:00,
2013-10-11 04:45:00,65.3,57.9,29.94,North,0,0.0,-999.0,77,0.00,,,0.00,Wunderground v.1.15,2013-10-11 08:45:00,
2013-10-11 04:50:00,65.3,57.9,29.94,North,0,0.0,-999.0,77,0.00,,,0.00,Wunderground v.1.15,2013-10-11 08:50:00,
2013-10-11 04:55:00,65.3,57.9,29.94,North,0,0.0,-999.0,77,0.00,,,0.00,Wunderground v.1.15,2013-10-11 08:55:00,
2013-10-11 05:00:00,65.3,57.9,29.94,North,0,0.0,-999.0,77,0.00,,,0.00,Wunderground v.1.15,2013-10-11 09:00:00,
2013-10-11 05:05:00,65.3,57.9,29.94,North,0,0.0,-999.0,77,0.00,,,0.00,Wunderground v.1.15,2013-10-11 09:05:00,
2013-10-11 05:10:00,65.3,57.9,29.94,North,0,0.0,-999.0,77,0.00,,,0.00,Wunderground v.1.15,2013-10-11 09:10:00,
2013-10-11 05:15:00,64.6,57.6,29.95,North,0,0.0,-999.0,78,0.00,,,0.00,Wunderground v.1.15,2013-10-11 09:15:00,
2013-10-11 05:20:00,64.6,57.6,29.95,North,0,0.0,-999.0,78,0.00,,,0.00,Wunderground v.1.15,2013-10-11 09:20:00,
2013-10-11 05:25:00,64.6,57.6,29.95,North,0,0.0,-999.0,78,0.00,,,0.00,Wunderground v.1.15,2013-10-11 09:25:00,
2013-10-11 05:30:00,64.6,57.6,29.95,North,0,0.0,-999.0,78,0.00,,,0.00,Wunderground v.1.15,2013-10-11 09:30:00,
2013-10-11 05:35:00,64.6,57.6,29.95,North,0,0.0,-999.0,78,0.00,,,0.00,Wunderground v.1.15,2013-10-11 09:35:00,
2013-10-11 05:40:00,64.6,57.6,29.95,North,0,0.0,-999.0,78,0.00,,,0.00,Wunderground v.1.15,2013-10-11 09:40:00,
2013-10-11 05:45:00,63.7,57.8,29.95,NE,45,0.0,-999.0,81,0.00,,,0.00,Wunderground v.1.15,2013-10-11 09:45:00,
2013-10-11 05:50:00,63.7,57.8,29.95,NE,45,0.0,-999.0,81,0.00,,,0.00,Wunderground v.1.15,2013-10-11 09:50:00,
2013-10-11 05:55:00,63.7,57.8,29.95,NE,45,0.0,-999.0,81,0.00,,,0.00,Wunderground v.1.15,2013-10-11 09:55:00,
2013-10-11 06:00:00,63.7,57.8,29.95,NE,45,0.0,-999.0,81,0.00,,,0.00,Wunderground v.1.15,2013-10-11 10:00:00,
2013-10-11 06:05:00,63.7,57.8,29.95,NE,45,0.0,-999.0,81,0.00,,,0.00,Wunderground v.1.15,2013-10-11 10:05:00,
2013-10-11 06:10:00,63.7,57.8,29.95,NE,45,0.0,-999.0,81,0.00,,,0.00,Wunderground v.1.15,2013-10-11 10:10:00,
2013-10-11 06:15:00,63.1,57.2,29.95,N/A,-737280,0.0,-999.0,81,0.00,,,0.00,Wunderground v.1.15,2013-10-11 10:15:00,
2013-10-11 06:20:00,63.1,57.2,29.95,N/A,-737280,0.0,-999.0,81,0.00,,,0.00,Wunderground v.1.15,2013-10-11 10:20:00,
2013-10-11 06:25:00,63.1,57.2,29.95,N/A,-737280,0.0,-999.0,81,0.00,,,0.00,Wunderground v.1.15,2013-10-11 10:25:00,
2013-10-11 06:30:00,63.1,57.2,29.95,N/A,-737280,0.0,-999.0,81,0.00,,,0.00,Wunderground v.1.15,2013-10-11 10:30:00,
2013-10-11 06:35:00,63.1,57.2,29.95,N/A,-737280,0.0,-999.0,81,0.00,,,0.00,Wunderground v.1.15,2013-10-11 10:35:00,
2013-10-11 06:40:00,63.1,57.2,29.95,N/A,-737280,0.0,-999.0,81,0.00,,,0.00,Wunderground v.1.15,2013-10-11 10:40:00,
2013-10-11 06:45:00,62.2,56.6,29.96,ESE,113,0.0,-999.0,82,0.00,,,0.00,Wunderground v.1.15,2013-10-11 10:45:00,
2013-10-11 06:50:00,62.2,56.6,29.96,ESE,113,0.0,-999.0,82,0.00,,,0.00,Wunderground v.1.15,2013-10-11 10:50:00,
2013-10-11 06:55:00,62.2,56.6,29.96,ESE,113,0.0,-999.0,82,0.00,,,0.00,Wunderground v.1.15,2013-10-11 10:55:00,
2013-10-11 07:00:00,62.2,56.6,29.96,ESE,113,0.0,-999.0,82,0.00,,,0.00,Wunderground v.1.15,2013-10-11 11:00:00,
2013-10-11 07:05:00,62.2,56.6,29.96,ESE,113,0.0,-999.0,82,0.00,,,0.00,Wunderground v.1.15,2013-10-11 11:05:00,
2013-10-11 07:10:00,62.2,56.6,29.96,ESE,113,0.0,-999.0,82,0.00,,,0.00,Wunderground v.1.15,2013-10-11 11:10:00,
2013-10-11 07:15:00,62.4,57.5,29.96,SW,225,0.0,-999.0,84,0.00,,,0.00,Wunderground v.1.15,2013-10-11 11:15:00,
2013-10-11 07:20:00,62.4,57.5,29.96,SW,225,0.0,-999.0,84,0.00,,,0.00,Wunderground v.1.15,2013-10-11 11:20:00,
2013-10-11 07:25:00,62.4,57.5,29.96,SW,225,0.0,-999.0,84,0.00,,,0.00,Wunderground v.1.15,2013-10-11 11:25:00,
2013-10-11 07:30:00,62.4,57.5,29.96,SW,225,0.0,-999.0,84,0.00,,,0.00,Wunderground v.1.15,2013-10-11 11:30:00,
2013-10-11 07:35:00,62.4,57.5,29.96,SW,225,0.0,-999.0,84,0.00,,,0.00,Wunderground v.1.15,2013-10-11 11:35:00,
2013-10-11 07:40:00,62.4,57.5,29.96,SW,225,0.0,-999.0,84,0.00,,,0.00,Wunderground v.1.15,2013-10-11 11:40:00,
2013-10-11 07:45:00,64.0,58.4,29.97,WSW,248,1.0,-999.0,82,0.00,,,0.00,Wunderground v.1.15,2013-10-11 11:45:00,
2013-10-11 07:50:00,64.0,58.4,29.97,WSW,248,1.0,-999.0,82,0.00,,,0.00,Wunderground v.1.15,2013-10-11 11:50:00,
2013-10-11 07:55:00,64.0,58.4,29.97,WSW,248,1.0,-999.0,82,0.00,,,0.00,Wunderground v.1.15,2013-10-11 11:55:00,
2013-10-11 08:00:00,64.0,58.4,29.97,WSW,248,1.0,-999.0,82,0.00,,,0.00,Wunderground v.1.15,2013-10-11 12:00:00,
2013-10-11 08:05:00,64.0,58.4,29.97,WSW,248,1.0,-999.0,82,0.00,,,0.00,Wunderground v.1.15,2013-10-11 12:05:00,
2013-10-11 08:10:00,64.0,58.4,29.97,WSW,248,1.0,-999.0,82,0.00,,,0.00,Wunderground v.1.15,2013-10-11 12:10:00,
2013-10-11 08:15:00,64.8,58.8,29.97,WSW,248,0.0,-999.0,81,0.00,,,0.00,Wunderground v.1.15,2013-10-11 12:15:00,
2013-10-11 08:20:00,64.8,58.8,29.97,WSW,248,0.0,-999.0,81,0.00,,,0.00,Wunderground v.1.15,2013-10-11 12:20:00,
2013-10-11 08:25:00,64.8,58.8,29.97,WSW,248,0.0,-999.0,81,0.00,,,0.00,Wunderground v.1.15,2013-10-11 12:25:00,
2013-10-11 08:30:00,64.8,58.8,29.97,WSW,248,0.0,-999.0,81,0.00,,,0.00,Wunderground v.1.15,2013-10-11 12:30:00,
2013-10-11 08:35:00,64.8,58.8,29.97,WSW,248,0.0,-999.0,81,0.00,,,0.00,Wunderground v.1.15,2013-10-11 12:35:00,
2013-10-11 08:40:00,64.8,58.8,29.97,WSW,248,0.0,-999.0,81,0.00,,,0.00,Wunderground v.1.15,2013-10-11 12:40:00,
2013-10-11 08:45:00,65.6,59.3,29.98,SSW,203,0.0,-999.0,80,0.00,,,0.00,Wunderground v.1.15,2013-10-11 12:45:00,
2013-10-11 08:50:00,65.6,59.3,29.98,SSW,203,0.0,-999.0,80,0.00,,,0.00,Wunderground v.1.15,2013-10-11 12:50:00,
2013-10-11 08:55:00,65.6,59.3,29.98,SSW,203,0.0,-999.0,80,0.00,,,0.00,Wunderground v.1.15,2013-10-11 12:55:00,
2013-10-11 09:00:00,65.6,59.3,29.98,SSW,203,0.0,-999.0,80,0.00,,,0.00,Wunderground v.1.15,2013-10-11 13:00:00,
2013-10-11 09:05:00,65.6,59.3,29.98,SSW,203,0.0,-999.0,80,0.00,,,0.00,Wunderground v.1.15,2013-10-11 13:05:00,
2013-10-11 09:10:00,65.6,59.3,29.98,SSW,203,0.0,-999.0,80,0.00,,,0.00,Wunderground v.1.15,2013-10-11 13:10:00,
2013-10-11 09:15:00,68.1,60.2,29.98,SW,225,0.0,-999.0,76,0.00,,,0.00,Wunderground v.1.15,2013-10-11 13:15:00,
2013-10-11 09:20:00,68.1,60.2,29.98,SW,225,0.0,-999.0,76,0.00,,,0.00,Wunderground v.1.15,2013-10-11 13:20:00,
2013-10-11 09:25:00,68.1,60.2,29.98,SW,225,0.0,-999.0,76,0.00,,,0.00,Wunderground v.1.15,2013-10-11 13:25:00,
2013-10-11 09:30:00,68.1,60.2,29.98,SW,225,0.0,-999.0,76,0.00,,,0.00,Wunderground v.1.15,2013-10-11 13:30:00,
2013-10-11 09:35:00,68.1,60.2,29.98,SW,225,0.0,-999.0,76,0.00,,,0.00,Wunderground v.1.15,2013-10-11 13:35:00,
2013-10-11 09:40:00,68.1,60.2,29.98,SW,225,0.0,-999.0,76,0.00,,,0.00,Wunderground v.1.15,2013-10-11 13:40:00,
2013-10-11 09:45:00,69.9,61.2,29.98,South,180,0.0,-999.0,74,0.00,,,0.00,Wunderground v.1.15,2013-10-11 13:45:00,
2013-10-11 09:50:00,69.9,61.2,29.98,South,180,0.0,-999.0,74,0.00,,,0.00,Wunderground v.1.15,2013-10-11 13:50:00,
2013-10-11 09:55:00,69.9,61.2,29.98,South,180,0.0,-999.0,74,0.00,,,0.00,Wunderground v.1.15,2013-10-11 13:55:00,
2013-10-11 10:00:00,69.9,61.2,29.98,South,180,0.0,-999.0,74,0.00,,,0.00,Wunderground v.1.15,2013-10-11 14:00:00,
2013-10-11 10:05:00,69.9,61.2,29.98,South,180,0.0,-999.0,74,0.00,,,0.00,Wunderground v.1.15,2013-10-11 14:05:00,
2013-10-11 10:10:00,69.9,61.2,29.98,South,180,0.0,-999.0,74,0.00,,,0.00,Wunderground v.1.15,2013-10-11 14:10:00,
2013-10-11 10:15:00,73.1,62.7,29.98,SW,225,1.0,-999.0,70,0.00,,,0.00,Wunderground v.1.15,2013-10-11 14:15:00,
2013-10-11 10:20:00,73.1,62.7,29.98,SW,225,1.0,-999.0,70,0.00,,,0.00,Wunderground v.1.15,2013-10-11 14:20:00,
2013-10-11 10:25:00,73.1,62.7,29.98,SW,225,1.0,-999.0,70,0.00,,,0.00,Wunderground v.1.15,2013-10-11 14:25:00,
2013-10-11 10:30:00,73.1,62.7,29.98,SW,225,1.0,-999.0,70,0.00,,,0.00,Wunderground v.1.15,2013-10-11 14:30:00,
2013-10-11 10:35:00,73.1,62.7,29.98,SW,225,1.0,-999.0,70,0.00,,,0.00,Wunderground v.1.15,2013-10-11 14:35:00,
2013-10-11 10:40:00,73.1,62.7,29.98,SW,225,1.0,-999.0,70,0.00,,,0.00,Wunderground v.1.15,2013-10-11 14:40:00,
2013-10-11 10:45:00,75.6,62.1,29.97,WSW,248,1.0,-999.0,63,0.00,,,0.00,Wunderground v.1.15,2013-10-11 14:45:00,
2013-10-11 10:50:00,75.6,62.1,29.97,WSW,248,1.0,-999.0,63,0.00,,,0.00,Wunderground v.1.15,2013-10-11 14:50:00,
2013-10-11 10:55:00,75.6,62.1,29.97,WSW,248,1.0,-999.0,63,0.00,,,0.00,Wunderground v.1.15,2013-10-11 14:55:00,
2013-10-11 11:00:00,75.6,62.1,29.97,WSW,248,1.0,-999.0,63,0.00,,,0.00,Wunderground v.1.15,2013-10-11 15:00:00,
2013-10-11 11:05:00,75.6,62.1,29.97,WSW,248,1.0,-999.0,63,0.00,,,0.00,Wunderground v.1.15,2013-10-11 15:05:00,
2013-10-11 11:10:00,75.6,62.1,29.97,WSW,248,1.0,-999.0,63,0.00,,,0.00,Wunderground v.1.15,2013-10-11 15:10:00,
2013-10-11 11:15:00,75.1,59.8,29.96,WSW,248,2.0,-999.0,59,0.00,,,0.00,Wunderground v.1.15,2013-10-11 15:15:00,
2013-10-11 11:20:00,75.1,59.8,29.96,WSW,248,2.0,-999.0,59,0.00,,,0.00,Wunderground v.1.15,2013-10-11 15:20:00,
2013-10-11 11:25:00,75.1,59.8,29.96,WSW,248,2.0,-999.0,59,0.00,,,0.00,Wunderground v.1.15,2013-10-11 15:25:00,
2013-10-11 11:30:00,75.1,59.8,29.96,WSW,248,2.0,-999.0,59,0.00,,,0.00,Wunderground v.1.15,2013-10-11 15:30:00,
2013-10-11 11:35:00,75.1,59.8,29.96,WSW,248,2.0,-999.0,59,0.00,,,0.00,Wunderground v.1.15,2013-10-11 15:35:00,
2013-10-11 11:40:00,75.1,59.8,29.96,WSW,248,2.0,-999.0,59,0.00,,,0.00,Wunderground v.1.15,2013-10-11 15:40:00,
2013-10-11 11:45:00,75.7,61.3,29.97,WSW,248,2.0,-999.0,61,0.00,,,0.00,Wunderground v.1.15,2013-10-11 15:45:00,
2013-10-11 11:50:00,75.7,61.3,29.97,WSW,248,2.0,-999.0,61,0.00,,,0.00,Wunderground v.1.15,2013-10-11 15:50:00,
2013-10-11 11:55:00,75.7,61.3,29.97,WSW,248,2.0,-999.0,61,0.00,,,0.00,Wunderground v.1.15,2013-10-11 15:55:00,
2013-10-11 12:00:00,75.7,61.3,29.97,WSW,248,2.0,-999.0,61,0.00,,,0.00,Wunderground v.1.15,2013-10-11 16:00:00,
2013-10-11 12:05:00,75.7,61.3,29.97,WSW,248,2.0,-999.0,61,0.00,,,0.00,Wunderground v.1.15,2013-10-11 16:05:00,
2013-10-11 12:10:00,75.7,61.3,29.97,WSW,248,2.0,-999.0,61,0.00,,,0.00,Wunderground v.1.15,2013-10-11 16:10:00,
2013-10-11 12:15:00,77.2,60.3,29.95,WSW,248,1.0,-999.0,56,0.00,,,0.00,Wunderground v.1.15,2013-10-11 16:15:00,
2013-10-11 12:20:00,77.2,60.3,29.95,WSW,248,1.0,-999.0,56,0.00,,,0.00,Wunderground v.1.15,2013-10-11 16:20:00,
2013-10-11 12:25:00,77.2,60.3,29.95,WSW,248,1.0,-999.0,56,0.00,,,0.00,Wunderground v.1.15,2013-10-11 16:25:00,
2013-10-11 12:30:00,77.2,60.3,29.95,WSW,248,1.0,-999.0,56,0.00,,,0.00,Wunderground v.1.15,2013-10-11 16:30:00,
2013-10-11 12:35:00,77.2,60.3,29.95,WSW,248,1.0,-999.0,56,0.00,,,0.00,Wunderground v.1.15,2013-10-11 16:35:00,
2013-10-11 12:40:00,77.2,60.3,29.95,WSW,248,1.0,-999.0,56,0.00,,,0.00,Wunderground v.1.15,2013-10-11 16:40:00,
2013-10-11 12:45:00,74.8,59.0,29.94,WSW,248,3.0,-999.0,58,0.00,,,0.00,Wunderground v.1.15,2013-10-11 16:45:00,
2013-10-11 12:50:00,74.8,59.0,29.94,WSW,248,3.0,-999.0,58,0.00,,,0.00,Wunderground v.1.15,2013-10-11 16:50:00,
2013-10-11 12:55:00,74.8,59.0,29.94,WSW,248,3.0,-999.0,58,0.00,,,0.00,Wunderground v.1.15,2013-10-11 16:55:00,
2013-10-11 13:00:00,74.8,59.0,29.94,WSW,248,3.0,-999.0,58,0.00,,,0.00,Wunderground v.1.15,2013-10-11 17:00:00,
2013-10-11 13:05:00,74.8,59.0,29.94,WSW,248,3.0,-999.0,58,0.00,,,0.00,Wunderground v.1.15,2013-10-11 17:05:00,
2013-10-11 13:10:00,74.8,59.0,29.94,WSW,248,3.0,-999.0,58,0.00,,,0.00,Wunderground v.1.15,2013-10-11 17:10:00,
2013-10-11 13:15:00,77.7,62.7,29.93,WSW,248,2.0,-999.0,60,0.00,,,0.00,Wunderground v.1.15,2013-10-11 17:15:00,
2013-10-11 13:20:00,77.7,62.7,29.93,WSW,248,2.0,-999.0,60,0.00,,,0.00,Wunderground v.1.15,2013-10-11 17:20:00,
2013-10-11 13:25:00,77.7,62.7,29.93,WSW,248,2.0,-999.0,60,0.00,,,0.00,Wunderground v.1.15,2013-10-11 17:25:00,
2013-10-11 13:30:00,77.7,62.7,29.93,WSW,248,2.0,-999.0,60,0.00,,,0.00,Wunderground v.1.15,2013-10-11 17:30:00,
2013-10-11 13:35:00,77.7,62.7,29.93,WSW,248,2.0,-999.0,60,0.00,,,0.00,Wunderground v.1.15,2013-10-11 17:35:00,
2013-10-11 13:40:00,77.7,62.7,29.93,WSW,248,2.0,-999.0,60,0.00,,,0.00,Wunderground v.1.15,2013-10-11 17:40:00,
2013-10-11 13:45:00,77.0,61.1,29.93,WNW,293,0.0,-999.0,58,0.00,,,0.00,Wunderground v.1.15,2013-10-11 17:45:00,
2013-10-11 13:50:00,77.0,61.1,29.93,WNW,293,0.0,-999.0,58,0.00,,,0.00,Wunderground v.1.15,2013-10-11 17:50:00,
2013-10-11 13:55:00,77.0,61.1,29.93,WNW,293,0.0,-999.0,58,0.00,,,0.00,Wunderground v.1.15,2013-10-11 17:55:00,
2013-10-11 14:00:00,77.0,61.1,29.93,WNW,293,0.0,-999.0,58,0.00,,,0.00,Wunderground v.1.15,2013-10-11 18:00:00,
2013-10-11 14:05:00,77.0,61.1,29.93,WNW,293,0.0,-999.0,58,0.00,,,0.00,Wunderground v.1.15,2013-10-11 18:05:00,
2013-10-11 14:10:00,77.0,61.1,29.93,WNW,293,0.0,-999.0,58,0.00,,,0.00,Wunderground v.1.15,2013-10-11 18:10:00,
2013-10-11 14:15:00,77.3,60.4,29.92,WSW,248,0.0,-999.0,56,0.00,,,0.00,Wunderground v.1.15,2013-10-11 18:15:00,
2013-10-11 14:20:00,77.3,60.4,29.92,WSW,248,0.0,-999.0,56,0.00,,,0.00,Wunderground v.1.15,2013-10-11 18:20:00,
2013-10-11 14:25:00,77.3,60.4,29.92,WSW,248,0.0,-999.0,56,0.00,,,0.00,Wunderground v.1.15,2013-10-11 18:25:00,
2013-10-11 14:30:00,77.3,60.4,29.92,WSW,248,0.0,-999.0,56,0.00,,,0.00,Wunderground v.1.15,2013-10-11 18:30:00,
2013-10-11 14:35:00,77.3,60.4,29.92,WSW,248,0.0,-999.0,56,0.00,,,0.00,Wunderground v.1.15,2013-10-11 18:35:00,
2013-10-11 14:40:00,77.3,60.4,29.92,WSW,248,0.0,-999.0,56,0.00,,,0.00,Wunderground v.1.15,2013-10-11 18:40:00,
2013-10-11 14:45:00,76.7,60.3,29.91,SE,135,1.0,-999.0,57,0.00,,,0.00,Wunderground v.1.15,2013-10-11 18:45:00,
2013-10-11 14:50:00,76.7,60.3,29.91,SE,135,1.0,-999.0,57,0.00,,,0.00,Wunderground v.1.15,2013-10-11 18:50:00,
2013-10-11 14:55:00,76.7,60.3,29.91,SE,135,1.0,-999.0,57,0.00,,,0.00,Wunderground v.1.15,2013-10-11 18:55:00,
2013-10-11 15:00:00,76.7,60.3,29.91,SE,135,1.0,-999.0,57,0.00,,,0.00,Wunderground v.1.15,2013-10-11 19:00:00,
2013-10-11 15:05:00,76.7,60.3,29.91,SE,135,1.0,-999.0,57,0.00,,,0.00,Wunderground v.1.15,2013-10-11 19:05:00,
2013-10-11 15:10:00,76.7,60.3,29.91,SE,135,1.0,-999.0,57,0.00,,,0.00,Wunderground v.1.15,2013-10-11 19:10:00,
2013-10-11 15:15:00,77.1,60.7,29.91,NNE,23,0.0,-999.0,57,0.00,,,0.00,Wunderground v.1.15,2013-10-11 19:15:00,
2013-10-11 15:20:00,77.1,60.7,29.91,NNE,23,0.0,-999.0,57,0.00,,,0.00,Wunderground v.1.15,2013-10-11 19:20:00,
2013-10-11 15:25:00,77.1,60.7,29.91,NNE,23,0.0,-999.0,57,0.00,,,0.00,Wunderground v.1.15,2013-10-11 19:25:00,
2013-10-11 15:30:00,77.1,60.7,29.91,NNE,23,0.0,-999.0,57,0.00,,,0.00,Wunderground v.1.15,2013-10-11 19:30:00,
2013-10-11 15:35:00,77.1,60.7,29.91,NNE,23,0.0,-999.0,57,0.00,,,0.00,Wunderground v.1.15,2013-10-11 19:35:00,
2013-10-11 15:40:00,77.1,60.7,29.91,NNE,23,0.0,-999.0,57,0.00,,,0.00,Wunderground v.1.15,2013-10-11 19:40:00,
2013-10-11 15:45:00,76.6,62.1,29.91,NE,45,0.0,-999.0,61,0.00,,,0.00,Wunderground v.1.15,2013-10-11 19:45:00,
2013-10-11 15:50:00,76.6,62.1,29.91,NE,45,0.0,-999.0,61,0.00,,,0.00,Wunderground v.1.15,2013-10-11 19:50:00,
2013-10-11 15:55:00,76.6,62.1,29.91,NE,45,0.0,-999.0,61,0.00,,,0.00,Wunderground v.1.15,2013-10-11 19:55:00,
2013-10-11 16:00:00,76.6,62.1,29.91,NE,45,0.0,-999.0,61,0.00,,,0.00,Wunderground v.1.15,2013-10-11 20:00:00,
2013-10-11 16:05:00,76.6,62.1,29.91,NE,45,0.0,-999.0,61,0.00,,,0.00,Wunderground v.1.15,2013-10-11 20:05:00,
2013-10-11 16:10:00,76.6,62.1,29.91,NE,45,0.0,-999.0,61,0.00,,,0.00,Wunderground v.1.15,2013-10-11 20:10:00,
2013-10-11 16:15:00,75.9,61.5,29.91,NE,45,0.0,-999.0,61,0.00,,,0.00,Wunderground v.1.15,2013-10-11 20:15:00,
2013-10-11 16:20:00,75.9,61.5,29.91,NE,45,0.0,-999.0,61,0.00,,,0.00,Wunderground v.1.15,2013-10-11 20:20:00,
2013-10-11 16:25:00,75.9,61.5,29.91,NE,45,0.0,-999.0,61,0.00,,,0.00,Wunderground v.1.15,2013-10-11 20:25:00,
2013-10-11 16:30:00,75.9,61.5,29.91,NE,45,0.0,-999.0,61,0.00,,,0.00,Wunderground v.1.15,2013-10-11 20:30:00,
2013-10-11 16:35:00,75.9,61.5,29.91,NE,45,0.0,-999.0,61,0.00,,,0.00,Wunderground v.1.15,2013-10-11 20:35:00,
2013-10-11 17:00:00,76.2,62.2,29.91,NE,45,0.0,-999.0,62,0.00,,,0.00,Wunderground v.1.15,2013-10-11 21:00:00,
2013-10-11 17:05:00,76.2,62.2,29.91,NE,45,0.0,-999.0,62,0.00,,,0.00,Wunderground v.1.15,2013-10-11 21:05:00,
2013-10-11 17:10:00,76.2,62.2,29.91,NE,45,0.0,-999.0,62,0.00,,,0.00,Wunderground v.1.15,2013-10-11 21:10:00,
2013-10-11 17:15:00,76.1,63.0,29.91,NE,45,0.0,-999.0,64,0.00,,,0.00,Wunderground v.1.15,2013-10-11 21:15:00,
2013-10-11 17:20:00,76.1,63.0,29.91,NE,45,0.0,-999.0,64,0.00,,,0.00,Wunderground v.1.15,2013-10-11 21:20:00,
2013-10-11 17:25:00,76.1,63.0,29.91,NE,45,0.0,-999.0,64,0.00,,,0.00,Wunderground v.1.15,2013-10-11 21:25:00,
2013-10-11 17:30:00,76.1,63.0,29.91,NE,45,0.0,-999.0,64,0.00,,,0.00,Wunderground v.1.15,2013-10-11 21:30:00,
2013-10-11 17:35:00,76.1,63.0,29.91,NE,45,0.0,-999.0,64,0.00,,,0.00,Wunderground v.1.15,2013-10-11 21:35:00,
2013-10-11 17:40:00,76.1,63.0,29.91,NE,45,0.0,-999.0,64,0.00,,,0.00,Wunderground v.1.15,2013-10-11 21:40:00,
2013-10-11 17:45:00,75.8,63.6,29.91,N/A,-737280,0.0,-999.0,66,0.00,,,0.00,Wunderground v.1.15,2013-10-11 21:45:00,
2013-10-11 17:50:00,75.8,63.6,29.91,N/A,-737280,0.0,-999.0,66,0.00,,,0.00,Wunderground v.1.15,2013-10-11 21:50:00,
2013-10-11 17:55:00,75.8,63.6,29.91,N/A,-737280,0.0,-999.0,66,0.00,,,0.00,Wunderground v.1.15,2013-10-11 21:55:00,
2013-10-11 18:00:00,75.8,63.6,29.91,N/A,-737280,0.0,-999.0,66,0.00,,,0.00,Wunderground v.1.15,2013-10-11 22:00:00,
2013-10-11 18:05:00,75.8,63.6,29.91,N/A,-737280,0.0,-999.0,66,0.00,,,0.00,Wunderground v.1.15,2013-10-11 22:05:00,
2013-10-11 18:10:00,75.8,63.6,29.91,N/A,-737280,0.0,-999.0,66,0.00,,,0.00,Wunderground v.1.15,2013-10-11 22:10:00,
2013-10-11 18:15:00,73.7,62.5,29.91,N/A,-737280,0.0,-999.0,68,0.00,,,0.00,Wunderground v.1.15,2013-10-11 22:15:00,
2013-10-11 18:20:00,73.7,62.5,29.91,N/A,-737280,0.0,-999.0,68,0.00,,,0.00,Wunderground v.1.15,2013-10-11 22:20:00,
2013-10-11 18:25:00,73.7,62.5,29.91,N/A,-737280,0.0,-999.0,68,0.00,,,0.00,Wunderground v.1.15,2013-10-11 22:25:00,
2013-10-11 18:30:00,73.7,62.5,29.91,N/A,-737280,0.0,-999.0,68,0.00,,,0.00,Wunderground v.1.15,2013-10-11 22:30:00,
2013-10-11 18:35:00,73.7,62.5,29.91,N/A,-737280,0.0,-999.0,68,0.00,,,0.00,Wunderground v.1.15,2013-10-11 22:35:00,
2013-10-11 18:40:00,73.7,62.5,29.91,N/A,-737280,0.0,-999.0,68,0.00,,,0.00,Wunderground v.1.15,2013-10-11 22:40:00,
2013-10-11 18:45:00,72.4,62.5,29.92,N/A,-737280,0.0,-999.0,71,0.00,,,0.00,Wunderground v.1.15,2013-10-11 22:45:00,
2013-10-11 18:50:00,72.4,62.5,29.92,N/A,-737280,0.0,-999.0,71,0.00,,,0.00,Wunderground v.1.15,2013-10-11 22:50:00,
2013-10-11 18:55:00,72.4,62.5,29.92,N/A,-737280,0.0,-999.0,71,0.00,,,0.00,Wunderground v.1.15,2013-10-11 22:55:00,
2013-10-11 19:00:00,72.4,62.5,29.92,N/A,-737280,0.0,-999.0,71,0.00,,,0.00,Wunderground v.1.15,2013-10-11 23:00:00,
2013-10-11 19:05:00,72.4,62.5,29.92,N/A,-737280,0.0,-999.0,71,0.00,,,0.00,Wunderground v.1.15,2013-10-11 23:05:00,
2013-10-11 19:10:00,72.4,62.5,29.92,N/A,-737280,0.0,-999.0,71,0.00,,,0.00,Wunderground v.1.15,2013-10-11 23:10:00,
2013-10-11 19:15:00,71.2,62.1,29.92,N/A,-737280,0.0,-999.0,73,0.00,,,0.00,Wunderground v.1.15,2013-10-11 23:15:00,
2013-10-11 19:20:00,71.2,62.1,29.92,N/A,-737280,0.0,-999.0,73,0.00,,,0.00,Wunderground v.1.15,2013-10-11 23:20:00,
2013-10-11 19:25:00,71.2,62.1,29.92,N/A,-737280,0.0,-999.0,73,0.00,,,0.00,Wunderground v.1.15,2013-10-11 23:25:00,
2013-10-11 19:30:00,71.2,62.1,29.92,N/A,-737280,0.0,-999.0,73,0.00,,,0.00,Wunderground v.1.15,2013-10-11 23:30:00,
2013-10-11 19:35:00,71.2,62.1,29.92,N/A,-737280,0.0,-999.0,73,0.00,,,0.00,Wunderground v.1.15,2013-10-11 23:35:00,
2013-10-11 19:40:00,71.2,62.1,29.92,N/A,-737280,0.0,-999.0,73,0.00,,,0.00,Wunderground v.1.15,2013-10-11 23:40:00,
2013-10-11 19:45:00,70.3,62.4,29.93,N/A,-737280,0.0,-999.0,76,0.00,,,0.00,Wunderground v.1.15,2013-10-11 23:45:00,
2013-10-11 19:50:00,70.3,62.4,29.93,N/A,-737280,0.0,-999.0,76,0.00,,,0.00,Wunderground v.1.15,2013-10-11 23:50:00,
2013-10-11 19:55:00,70.3,62.4,29.93,N/A,-737280,0.0,-999.0,76,0.00,,,0.00,Wunderground v.1.15,2013-10-11 23:55:00,
2013-10-11 20:00:00,70.3,62.4,29.93,N/A,-737280,0.0,-999.0,76,0.00,,,0.00,Wunderground v.1.15,2013-10-12 00:00:00,
2013-10-11 20:05:00,70.3,62.4,29.93,N/A,-737280,0.0,-999.0,76,0.00,,,0.00,Wunderground v.1.15,2013-10-12 00:05:00,
2013-10-11 20:10:00,70.3,62.4,29.93,N/A,-737280,0.0,-999.0,76,0.00,,,0.00,Wunderground v.1.15,2013-10-12 00:10:00,
2013-10-11 20:15:00,69.7,62.9,29.94,N/A,-737280,0.0,-999.0,79,0.00,,,0.00,Wunderground v.1.15,2013-10-12 00:15:00,
2013-10-11 20:20:00,69.7,62.9,29.94,N/A,-737280,0.0,-999.0,79,0.00,,,0.00,Wunderground v.1.15,2013-10-12 00:20:00,
2013-10-11 20:25:00,69.7,62.9,29.94,N/A,-737280,0.0,-999.0,79,0.00,,,0.00,Wunderground v.1.15,2013-10-12 00:25:00,
2013-10-11 20:30:00,69.7,62.9,29.94,N/A,-737280,0.0,-999.0,79,0.00,,,0.00,Wunderground v.1.15,2013-10-12 00:30:00,
2013-10-11 20:35:00,69.7,62.9,29.94,N/A,-737280,0.0,-999.0,79,0.00,,,0.00,Wunderground v.1.15,2013-10-12 00:35:00,
2013-10-11 20:40:00,69.7,62.9,29.94,N/A,-737280,0.0,-999.0,79,0.00,,,0.00,Wunderground v.1.15,2013-10-12 00:40:00,
2013-10-11 20:45:00,69.4,63.3,29.94,N/A,-737280,0.0,-999.0,81,0.00,,,0.00,Wunderground v.1.15,2013-10-12 00:45:00,
2013-10-11 20:50:00,69.4,63.3,29.94,N/A,-737280,0.0,-999.0,81,0.00,,,0.00,Wunderground v.1.15,2013-10-12 00:50:00,
2013-10-11 20:55:00,69.4,63.3,29.94,N/A,-737280,0.0,-999.0,81,0.00,,,0.00,Wunderground v.1.15,2013-10-12 00:55:00,
2013-10-11 21:00:00,69.4,63.3,29.94,N/A,-737280,0.0,-999.0,81,0.00,,,0.00,Wunderground v.1.15,2013-10-12 01:00:00,
2013-10-11 21:05:00,69.4,63.3,29.94,N/A,-737280,0.0,-999.0,81,0.00,,,0.00,Wunderground v.1.15,2013-10-12 01:05:00,
2013-10-11 21:10:00,69.4,63.3,29.94,N/A,-737280,0.0,-999.0,81,0.00,,,0.00,Wunderground v.1.15,2013-10-12 01:10:00,
2013-10-11 21:15:00,69.2,63.1,29.95,N/A,-737280,0.0,-999.0,81,0.00,,,0.00,Wunderground v.1.15,2013-10-12 01:15:00,
2013-10-11 21:20:00,69.2,63.1,29.95,N/A,-737280,0.0,-999.0,81,0.00,,,0.00,Wunderground v.1.15,2013-10-12 01:20:00,
2013-10-11 21:25:00,69.2,63.1,29.95,N/A,-737280,0.0,-999.0,81,0.00,,,0.00,Wunderground v.1.15,2013-10-12 01:25:00,
2013-10-11 21:30:00,69.2,63.1,29.95,N/A,-737280,0.0,-999.0,81,0.00,,,0.00,Wunderground v.1.15,2013-10-12 01:30:00,
2013-10-11 21:35:00,69.2,63.1,29.95,N/A,-737280,0.0,-999.0,81,0.00,,,0.00,Wunderground v.1.15,2013-10-12 01:35:00,
2013-10-11 21:40:00,69.2,63.1,29.95,N/A,-737280,0.0,-999.0,81,0.00,,,0.00,Wunderground v.1.15,2013-10-12 01:40:00,
2013-10-11 21:45:00,68.9,62.8,29.95,N/A,-737280,0.0,-999.0,81,0.00,,,0.00,Wunderground v.1.15,2013-10-12 01:45:00,
2013-10-11 21:50:00,68.9,62.8,29.95,N/A,-737280,0.0,-999.0,81,0.00,,,0.00,Wunderground v.1.15,2013-10-12 01:50:00,
2013-10-11 21:55:00,68.9,62.8,29.95,N/A,-737280,0.0,-999.0,81,0.00,,,0.00,Wunderground v.1.15,2013-10-12 01:55:00,
2013-10-11 22:00:00,68.9,62.8,29.95,N/A,-737280,0.0,-999.0,81,0.00,,,0.00,Wunderground v.1.15,2013-10-12 02:00:00,
2013-10-11 22:05:00,68.9,62.8,29.95,N/A,-737280,0.0,-999.0,81,0.00,,,0.00,Wunderground v.1.15,2013-10-12 02:05:00,
2013-10-11 22:10:00,68.9,62.8,29.95,N/A,-737280,0.0,-999.0,81,0.00,,,0.00,Wunderground v.1.15,2013-10-12 02:10:00,
2013-10-11 22:15:00,68.4,62.3,29.95,N/A,-737280,0.0,-999.0,81,0.00,,,0.00,Wunderground v.1.15,2013-10-12 02:15:00,
2013-10-11 22:20:00,68.4,62.3,29.95,N/A,-737280,0.0,-999.0,81,0.00,,,0.00,Wunderground v.1.15,2013-10-12 02:20:00,
2013-10-11 22:25:00,68.4,62.3,29.95,N/A,-737280,0.0,-999.0,81,0.00,,,0.00,Wunderground v.1.15,2013-10-12 02:25:00,
2013-10-11 22:30:00,68.4,62.3,29.95,N/A,-737280,0.0,-999.0,81,0.00,,,0.00,Wunderground v.1.15,2013-10-12 02:30:00,
2013-10-11 22:35:00,68.4,62.3,29.95,N/A,-737280,0.0,-999.0,81,0.00,,,0.00,Wunderground v.1.15,2013-10-12 02:35:00,
2013-10-11 22:40:00,68.4,62.3,29.95,N/A,-737280,0.0,-999.0,81,0.00,,,0.00,Wunderground v.1.15,2013-10-12 02:40:00,
2013-10-11 22:45:00,68.3,62.6,29.96,N/A,-737280,0.0,-999.0,82,0.00,,,0.00,Wunderground v.1.15,2013-10-12 02:45:00,
2013-10-11 22:50:00,68.3,62.6,29.96,N/A,-737280,0.0,-999.0,82,0.00,,,0.00,Wunderground v.1.15,2013-10-12 02:50:00,
2013-10-11 22:55:00,68.3,62.6,29.96,N/A,-737280,0.0,-999.0,82,0.00,,,0.00,Wunderground v.1.15,2013-10-12 02:55:00,
2013-10-11 23:00:00,68.3,62.6,29.96,N/A,-737280,0.0,-999.0,82,0.00,,,0.00,Wunderground v.1.15,2013-10-12 03:00:00,
2013-10-11 23:05:00,68.3,62.6,29.96,N/A,-737280,0.0,-999.0,82,0.00,,,0.00,Wunderground v.1.15,2013-10-12 03:05:00,
2013-10-11 23:10:00,68.3,62.6,29.96,N/A,-737280,0.0,-999.0,82,0.00,,,0.00,Wunderground v.1.15,2013-10-12 03:10:00,
2013-10-11 23:15:00,68.3,62.6,29.95,N/A,-737280,0.0,-999.0,82,0.00,,,0.00,Wunderground v.1.15,2013-10-12 03:15:00,
2013-10-11 23:20:00,68.3,62.6,29.95,N/A,-737280,0.0,-999.0,82,0.00,,,0.00,Wunderground v.1.15,2013-10-12 03:20:00,
2013-10-11 23:25:00,68.3,62.6,29.95,N/A,-737280,0.0,-999.0,82,0.00,,,0.00,Wunderground v.1.15,2013-10-12 03:25:00,
2013-10-11 23:30:00,68.3,62.6,29.95,N/A,-737280,0.0,-999.0,82,0.00,,,0.00,Wunderground v.1.15,2013-10-12 03:30:00,
2013-10-11 23:35:00,68.3,62.6,29.95,N/A,-737280,0.0,-999.0,82,0.00,,,0.00,Wunderground v.1.15,2013-10-12 03:35:00,
2013-10-11 23:40:00,68.3,62.6,29.95,N/A,-737280,0.0,-999.0,82,0.00,,,0.00,Wunderground v.1.15,2013-10-12 03:40:00,
2013-10-11 23:45:00,68.1,62.7,29.95,N/A,-737280,0.0,-999.0,83,0.00,,,0.00,Wunderground v.1.15,2013-10-12 03:45:00,
2013-10-11 23:50:00,68.1,62.7,29.95,N/A,-737280,0.0,-999.0,83,0.00,,,0.00,Wunderground v.1.15,2013-10-12 03:50:00,
2013-10-11 23:55:00,68.1,62.7,29.95,N/A,-737280,0.0,-999.0,83,0.00,,,0.00,Wunderground v.1.15,2013-10-12 03:55:00,